EW7786 Weather Reports


time (UTC)temp
C
wind
direction
speed
KPH
gust
KPH
rain 1hr
cm
rain 24hr
cm
rain mn
cm
humidity
%
barometer
mb
20260504081505 13 184 4.8 12.9 0.00 0.00 0.00 39 1005.3
20260504044534 15 153 1.6 4.8 0.00 0.00 0.00 39 1007.0
20260504043034 15 152 3.2 8.0 0.00 0.00 0.00 39 1007.3
20260504041534 15 167 4.8 8.0 0.00 0.00 0.00 39 1007.6
20260504040033 16 175 3.2 8.0 0.00 0.00 0.00 39 1007.6
20260504034533 16 191 4.8 8.0 0.00 0.00 0.00 39 1007.9
20260504033037 16 217 4.8 6.4 0.00 0.00 0.00 39 1007.8
20260504031532 16 217 3.2 6.4 0.00 0.00 0.00 39 1008.0
20260504030031 16 222 4.8 8.0 0.00 0.00 0.00 39 1008.1
20260504024529 16 323 3.2 4.8 0.00 0.00 0.00 39 1008.3
20260504023030 16 324 0.0 0.0 0.00 0.00 0.00 39 1008.2
20260504021530 16 324 0.0 3.2 0.00 0.00 0.00 39 1007.9
20260504020031 16 324 3.2 4.8 0.00 0.00 0.00 39 1008.2
20260504014541 16 324 1.6 8.0 0.00 0.00 0.00 39 1008.0
20260504013027 17 323 6.4 8.0 0.00 0.00 0.00 39 1007.9
20260504011527 17 323 4.8 9.7 0.00 0.00 0.00 39 1007.5
20260504010026 17 324 1.6 4.8 0.00 0.00 0.00 39 1007.6
20260504004524 18 324 0.0 6.4 0.00 0.00 0.00 39 1007.3
20260504003023 18 323 8.0 12.9 0.00 0.00 0.00 39 1007.8
20260504001525 19 290 9.7 12.9 0.00 0.00 0.00 39 1007.9
20260504000037 20 265 4.8 12.9 0.00 0.00 0.00 39 1007.1
20260503234519 20 297 14.5 24.1 0.00 0.00 0.00 39 1007.7
20260503233020 21 265 16.1 22.5 0.00 0.00 0.00 39 1007.4
20260503231513 21 277 24.1 32.2 0.00 0.00 0.00 39 1008.1
20260503230012 22 260 22.5 33.8 0.00 0.00 0.00 39 1007.8
20260503224511 22 264 27.4 37.0 0.00 0.00 0.00 39 1007.6
20260503223010 22 244 25.7 40.2 0.00 0.00 0.00 39 1007.2
20260503221508 22 242 29.0 40.2 0.00 0.00 0.00 39 1007.5
20260503220007 22 245 32.2 41.8 0.00 0.00 0.00 39 1007.9
20260503214520 22 240 33.8 51.5 0.00 0.00 0.00 39 1007.6
20260503213005 22 240 33.8 45.1 0.00 0.00 0.00 39 1008.0
20260503211506 22 230 33.8 46.7 0.00 0.00 0.00 39 1008.0
20260503210007 22 215 32.2 38.6 0.00 0.00 0.00 39 1008.3
20260503204609 21 220 29.0 45.1 0.00 0.00 0.00 39 1008.8
20260503203106 21 231 29.0 43.5 0.00 0.00 0.00 39 1008.9
20260503201555 20 236 27.4 40.2 0.00 0.00 0.00 39 1009.6
20260503200052 20 213 30.6 38.6 0.00 0.00 0.00 39 1009.8
20260503194606 20 227 37.0 45.1 0.00 0.00 0.00 39 1009.9
20260503193048 18 221 32.2 43.5 0.00 0.00 0.00 39 1010.1
20260503191548 18 215 38.6 43.5 0.00 0.00 0.00 39 1010.1
20260503190057 18 203 29.0 48.3 0.00 0.00 0.00 39 1010.2
20260503184546 19 190 37.0 48.3 0.00 0.00 0.00 39 1010.6
20260503183051 19 214 35.4 45.1 0.00 0.00 0.00 39 1010.5
20260503181542 19 219 37.0 53.1 0.00 0.00 0.00 39 1011.1
20260503180042 19 219 35.4 48.3 0.00 0.00 0.00 39 1011.4
20260503174538 18 209 37.0 53.1 0.00 0.00 0.00 39 1012.0
20260503173106 18 202 38.6 61.2 0.00 0.00 0.00 39 1012.2
20260503171536 18 198 45.1 57.9 0.00 0.00 0.00 39 1011.9